"Pseudo-MPEC" for MQF7733

Created 2026 Aug 18 16:35:05 UT using Find_Orb

Click here for an explanation of pseudo-MPECs

 
 Astrometry: 
     MQF7733* C2026 08 06.84593801 46 35.535+00 05 49.77   ~8IGZ 21.03rWNEOCPO18
     MQF7733  C2026 08 06.87258101 46 36.202+00 06 15.61   ~8IGZ 20.99gWNEOCPO18
     MQF7733 0C2026 08 09.55917101 47 43.593+00 48 34.34   ~8IGZ 20.87wXNEOCPF51
     MQF7733 0C2026 08 09.56927701 47 43.754+00 48 43.55   ~8IGZ 20.61wXNEOCPF51
     MQF7733 0C2026 08 09.57938101 47 43.882+00 48 52.75   ~8IGZ 20.62wXNEOCPF51
     MQF7733 0C2026 08 09.58952201 47 44.026+00 49 02.10   ~8IGZ 20.60wXNEOCPF51
     MQF7733  C2026 08 14.81726901 48 39.256+02 04 34.96   ~8IGZ 20.20rWNEOCPO18
     MQF7733  C2026 08 14.88620401 48 38.958+02 05 31.51   ~8IGZ 21.20gWNEOCPO18
     MQF7733  C2026 08 16.79075201 48 33.905+02 30 56.56   ~8IGZ 20.67rWNEOCPO18
     MQF7733  C2026 08 16.89486101 48 32.686+02 32 17.87   ~8IGZ 21.35gWNEOCPO18
     MQF7733  C2026 08 17.85700201 48 24.649+02 44 40.96   ~8IGZ 21.21gWNEOCPO18
     MQF7733  C2026 08 17.89076401 48 24.109+02 45 06.77   ~8IGZ 20.48rWNEOCPO18

Station data:
(F51) Pan-STARRS 1, Haleakala  (N20.707234 W156.255910)  US/Hawaii.
   Observers J. Herman, T. Lowe, P. Minguez, A. Schultz, I. Smith. Measurers
   K. Chambers, T. de Boer, J. Fairlamb, H. Gao, M. Huber, C.-C. Lin, E.
   Magnier, Y. Ramanjooloo, R. Wainscoat, R. Weryk. 1.8-m Ritchey-Chrétien +
   CCD.
(O18) WFST, Lenghu  (N38.607601 E93.895220)  China.  Observers K. Yan, Z. Q.
   Li, J. Z. Zhu, N. Jiang, Z. Y. Liu. Measurers B. Li, H. B. Zhao, Z. J. Xu,
   G. T. Zhaori. 2.5-m f/2.48 reflector + CCD.

Orbital elements:  MQF7733
   Perihelion 2026 Jun 17.495022 +/- 0.0412 TT = 11:52:49.9 (JD 2461208.995022)
Epoch 2026 Aug 17.0 TT = JDT 2461269.5   Earth MOID: 0.1772   Ma: 0.0134
M  15.927650281 +/- 0.08            (J2000 ecliptic)             AutoNEOCP
n   0.263245288 +/- 0.00134         Peri.  281.176835 +/- 0.024
a   2.411176364 +/- 0.00821         Node     6.841260 +/- 0.022
e   0.53280796 +/- 0.00148          Incl.    7.682241 +/- 0.010
P   3.74407                H 19.89  G  0.15   U  8.3
q 1.126482384 +/- 0.000303    Q 3.695870343 +/- 0.0161
From 12 observations 2026 Aug. 6-17; mean residual 0".10
Residuals in arcseconds: 
260806 O18  .04-  .02-    260809 F51  .02-  .06-    260816 O18  .04+  .32+    
260806 O18  .03+  .00     260809 F51  .09+  .02-    260816 O18  .00   .03+    
260809 F51  .19-  .08+    260814 O18  .07-  .10-    260817 O18  .00   .09-    
260809 F51  .13+  .01+    260814 O18  .06+  .08-    260817 O18  .02-  .09-    

Ephemerides (geocentric):
Date (UTC) HH   RA             Dec           delta  r     elong  mag " sig PA
---- --------  ------------   ------------  ------ ------ -----  --- --------
2026 08 18 17  01 48 14.234   +02 55 34.70  .50740 1.3338 118.9 20.7 .275 100
2026 08 18 18  01 48 13.670   +02 56 05.86  .50743 1.3341 119.0 20.7 .281 100
2026 08 18 19  01 48 13.100   +02 56 36.99  .50745 1.3343 119.0 20.7 .288  99
2026 08 18 20  01 48 12.524   +02 57 08.08  .50748 1.3345 119.1 20.7 .295  99
2026 08 18 21  01 48 11.941   +02 57 39.15  .50750 1.3348 119.1 20.7 .301  99
2026 08 18 22  01 48 11.352   +02 58 10.18  .50753 1.3350 119.1 20.7 .308  99
2026 08 18 23  01 48 10.757   +02 58 41.18  .50755 1.3353 119.2 20.7 .315  99
2026 08 19 00  01 48 10.155   +02 59 12.15  .50758 1.3355 119.2 20.7 .322  99
2026 08 19 01  01 48 09.546   +02 59 43.09  .50760 1.3358 119.3 20.7 .329  99
2026 08 19 02  01 48 08.932   +03 00 13.99  .50763 1.3360 119.3 20.7 .336  99
2026 08 19 03  01 48 08.311   +03 00 44.87  .50765 1.3362 119.3 20.7 .343  99
2026 08 19 04  01 48 07.684   +03 01 15.71  .50768 1.3365 119.4 20.7 .350  99
2026 08 19 05  01 48 07.050   +03 01 46.52  .50770 1.3367 119.4 20.7 .357  99
2026 08 19 06  01 48 06.410   +03 02 17.30  .50773 1.3370 119.5 20.7 .364  99
2026 08 19 07  01 48 05.764   +03 02 48.05  .50775 1.3372 119.5 20.7 .371  99
2026 08 19 08  01 48 05.111   +03 03 18.77  .50778 1.3375 119.5 20.7 .379  98
2026 08 19 09  01 48 04.452   +03 03 49.46  .50780 1.3377 119.6 20.7 .386  98
2026 08 19 10  01 48 03.786   +03 04 20.11  .50783 1.3379 119.6 20.7 .393  98
2026 08 19 11  01 48 03.115   +03 04 50.73  .50785 1.3382 119.7 20.7 .401  98
2026 08 19 12  01 48 02.437   +03 05 21.33  .50788 1.3384 119.7 20.7 .408  98
2026 08 19 13  01 48 01.752   +03 05 51.89  .50791 1.3387 119.7 20.7 .416  98
2026 08 19 14  01 48 01.061   +03 06 22.41  .50793 1.3389 119.8 20.7 .424  98
2026 08 19 15  01 48 00.364   +03 06 52.91  .50796 1.3392 119.8 20.7 .431  98
2026 08 19 16  01 47 59.661   +03 07 23.38  .50798 1.3394 119.9 20.7 .439  98
2026 08 19 17  01 47 58.951   +03 07 53.81  .50801 1.3397 119.9 20.7 .447  98
2026 08 19 18  01 47 58.235   +03 08 24.21  .50803 1.3399 119.9 20.7 .455  98
2026 08 19 19  01 47 57.512   +03 08 54.58  .50806 1.3401 120.0 20.7 .463  98
2026 08 19 20  01 47 56.783   +03 09 24.92  .50809 1.3404 120.0 20.7 .471  98
2026 08 19 21  01 47 56.048   +03 09 55.23  .50811 1.3406 120.1 20.7 .479  98
2026 08 19 22  01 47 55.306   +03 10 25.51  .50814 1.3409 120.1 20.7 .487  98
2026 08 19 23  01 47 54.559   +03 10 55.75  .50816 1.3411 120.1 20.7 .495  98
2026 08 20 00  01 47 53.804   +03 11 25.97  .50819 1.3414 120.2 20.7 .503  98
2026 08 20 01  01 47 53.044   +03 11 56.15  .50822 1.3416 120.2 20.7 .512  98
2026 08 20 02  01 47 52.277   +03 12 26.30  .50824 1.3419 120.3 20.7 .520  97
2026 08 20 03  01 47 51.504   +03 12 56.42  .50827 1.3421 120.3 20.7 .529  97
2026 08 20 04  01 47 50.724   +03 13 26.51  .50830 1.3423 120.3 20.7 .537  97
2026 08 20 05  01 47 49.938   +03 13 56.57  .50832 1.3426 120.4 20.7 .546  97
2026 08 20 06  01 47 49.146   +03 14 26.59  .50835 1.3428 120.4 20.7 .554  97
2026 08 20 07  01 47 48.347   +03 14 56.58  .50837 1.3431 120.5 20.7 .563  97
2026 08 20 08  01 47 47.543   +03 15 26.55  .50840 1.3433 120.5 20.7 .572  97
2026 08 20 09  01 47 46.731   +03 15 56.48  .50843 1.3436 120.5 20.7 .580  97
2026 08 20 10  01 47 45.914   +03 16 26.38  .50845 1.3438 120.6 20.7 .589  97
2026 08 20 11  01 47 45.090   +03 16 56.24  .50848 1.3441 120.6 20.7 .598  97
2026 08 20 12  01 47 44.260   +03 17 26.08  .50851 1.3443 120.7 20.7 .607  97
2026 08 20 13  01 47 43.423   +03 17 55.89  .50853 1.3446 120.7 20.7 .616  97
2026 08 20 14  01 47 42.581   +03 18 25.66  .50856 1.3448 120.7 20.7 .625  97
2026 08 20 15  01 47 41.731   +03 18 55.40  .50859 1.3450 120.8 20.7 .634  97
2026 08 20 16  01 47 40.876   +03 19 25.11  .50862 1.3453 120.8 20.7 .644  97